Weather History for Watonga, OK

Change the Weather History Date:

Monday, July 1, 2013

  Actual Average Record
Temperature  
Mean Temperature 68 °F -  
Max Temperature 82 °F 92 °F 103 °F (1980)
Min Temperature 54 °F 70 °F 54 °F (2013)
Cooling Degree Days 3    
Growing Degree Days 18 (Base 50)    
Moisture  
Dew Point 53 °F    
Average Humidity 58    
Maximum Humidity 94    
Minimum Humidity 31    
Precipitation  
Precipitation 0.00 in - - ()
Sea Level Pressure  
Sea Level Pressure 30.12 in    
Wind  
Wind Speed - (North)    
Max Wind Speed -    
Max Gust Speed -    
Visibility 10 miles    
Events      
Averages and records for this station are not official NWS values.
T = Trace of Precipitation, MM = Missing Value Source: NWS Daily Summary

Daily Weather History Graph

Daily Weather History Graph

Search for Another Location

Airport:

Trip Planner

Search our weather history database for the weather conditions in past years. The results will help you decide how hot, cold, wet, or windy it might be!

Date:

Astronomy

Jul. 01, 2013 Rise Set
Actual Time 6:21 AM CDT 8:54 PM CDT
Civil Twilight 5:51 AM CDT 9:24 PM CDT
Nautical Twilight 5:13 AM CDT 10:01 PM CDT
Astronomical Twilight 4:32 AM CDT 10:42 PM CDT
Moon 1:44 AM CDT (7/1) 3:16 PM CDT (7/1)
Length of Visible Light 15h 32m
Length of Day
14h 32m
Waning Crescent, 35% of the Moon is Illuminated
Jul 1
Waning Crescent
Jul 8
New
Jul 15
First Quarter
Jul 22
Full
Jul 29
Last Quarter

Hourly Weather History & Observations

Time (CDT) Temp. Heat Index Dew Point Humidity Pressure Visibility Wind Dir Wind Speed Gust Speed Precip Events Conditions
12:15 AM 66.6 °F - 55.0 °F 66% 30.09 in 10.0 mi North - - N/A   Clear
12:35 AM 64.6 °F - 55.4 °F 72% 30.09 in 10.0 mi North - - N/A   Clear
12:55 AM 64.6 °F - 55.6 °F 73% 30.10 in 10.0 mi North - - N/A   Clear
1:15 AM 64.4 °F - 55.4 °F 73% 30.09 in 10.0 mi North - - N/A   Clear
1:35 AM 64.6 °F - 55.6 °F 73% 30.09 in 10.0 mi North - - N/A   Clear
1:55 AM 64.0 °F - 55.6 °F 74% 30.09 in 10.0 mi North - - N/A   Clear
2:15 AM 64.0 °F - 55.0 °F 73% 30.09 in 10.0 mi North - - N/A   Clear
2:35 AM 64.0 °F - 54.9 °F 72% 30.09 in 10.0 mi North - - N/A   Clear
2:55 AM 63.7 °F - 54.7 °F 72% 30.09 in 10.0 mi North - - N/A   Clear
3:15 AM 62.4 °F - 54.9 °F 76% 30.09 in 10.0 mi North - - N/A   Clear
3:35 AM 60.8 °F - 54.5 °F 80% 30.09 in 10.0 mi North - - N/A   Clear
3:55 AM 60.6 °F - 54.5 °F 80% 30.09 in 10.0 mi North - - N/A   Clear
4:15 AM 61.2 °F - 54.5 °F 79% 30.10 in 10.0 mi North - - N/A   Clear
4:35 AM 61.2 °F - 54.0 °F 77% 30.11 in 10.0 mi North - - N/A   Clear
4:55 AM 54.9 °F - 52.3 °F 91% 30.11 in 10.0 mi North - - N/A   Clear
5:15 AM 54.7 °F - 52.2 °F 91% 30.11 in 10.0 mi North - - N/A   Clear
5:35 AM 60.8 °F - 54.3 °F 79% 30.11 in 10.0 mi North - - N/A   Clear
5:55 AM 61.0 °F - 54.5 °F 79% 30.12 in 10.0 mi North - - N/A   Clear
6:15 AM 55.8 °F - 53.1 °F 91% 30.13 in 10.0 mi North - - N/A   Clear
6:35 AM 56.1 °F - 53.4 °F 91% 30.13 in 10.0 mi North - - N/A   Clear
6:55 AM 55.6 °F - 53.8 °F 94% 30.14 in 10.0 mi North - - N/A   Clear
7:15 AM 58.1 °F - 54.7 °F 88% 30.15 in 10.0 mi North - - N/A   Clear
7:35 AM 60.4 °F - 55.6 °F 84% 30.15 in 10.0 mi North - - N/A   Clear
7:55 AM 62.8 °F - 56.3 °F 79% 30.16 in 10.0 mi North - - N/A   Clear
8:15 AM 65.3 °F - 56.8 °F 74% 30.16 in 10.0 mi North - - N/A   Clear
8:35 AM 67.5 °F - 57.4 °F 70% 30.16 in 10.0 mi North - - N/A   Clear
8:55 AM 68.4 °F - 57.6 °F 68% 30.16 in 10.0 mi North - - N/A   Clear
9:15 AM 69.3 °F - 57.7 °F 67% 30.17 in 10.0 mi North - - N/A   Clear
9:35 AM 71.1 °F - 58.6 °F 65% 30.17 in 10.0 mi North - - N/A   Clear
9:55 AM 71.6 °F - 58.8 °F 64% 30.18 in 10.0 mi North - - N/A   Clear
10:15 AM 72.7 °F - 59.0 °F 62% 30.18 in 10.0 mi North - - N/A   Clear
10:35 AM 73.8 °F - 58.8 °F 59% 30.18 in 10.0 mi North - - N/A   Clear
10:55 AM 75.0 °F - 58.8 °F 57% 30.17 in 10.0 mi North - - N/A   Scattered Clouds
11:15 AM 73.8 °F - 57.9 °F 58% 30.17 in 10.0 mi North - - N/A   Scattered Clouds
11:35 AM 75.6 °F - 58.3 °F 55% 30.17 in 10.0 mi North - - N/A   Mostly Cloudy
11:55 AM 75.9 °F - 57.7 °F 53% 30.17 in 10.0 mi North - - N/A   Scattered Clouds
12:15 PM 78.3 °F - 55.2 °F 45% 30.16 in 10.0 mi North - - N/A   Scattered Clouds
12:35 PM 77.9 °F - 55.9 °F 47% 30.15 in 10.0 mi North - - N/A   Scattered Clouds
12:55 PM 78.6 °F - 54.0 °F 42% 30.15 in 10.0 mi North - - N/A   Scattered Clouds
1:15 PM 79.5 °F - 54.7 °F 42% 30.15 in 10.0 mi North - - N/A   Scattered Clouds
1:35 PM 78.3 °F - 54.1 °F 43% 30.14 in 10.0 mi North - - N/A   Mostly Cloudy
1:55 PM 79.0 °F - 53.6 °F 41% 30.14 in 10.0 mi North - - N/A   Mostly Cloudy
2:15 PM 80.4 °F 80.2 °F 53.8 °F 40% 30.13 in 10.0 mi North - - N/A   Scattered Clouds
2:35 PM 80.6 °F 80.4 °F 54.1 °F 40% 30.13 in 10.0 mi North - - N/A   Clear
2:55 PM 81.0 °F - 52.5 °F 37% 30.12 in 10.0 mi North - - N/A   Scattered Clouds
3:15 PM 82.0 °F 81.2 °F 53.1 °F 37% 30.12 in 10.0 mi North - - N/A   Clear
3:35 PM 81.5 °F - 52.0 °F 36% 30.12 in 10.0 mi North - - N/A   Clear
3:55 PM 81.9 °F - 52.3 °F 36% 30.11 in 10.0 mi North - - N/A   Clear
4:15 PM 81.9 °F - 52.3 °F 36% 30.11 in 10.0 mi North - - N/A   Scattered Clouds
4:35 PM 82.0 °F - 50.9 °F 34% 30.10 in 10.0 mi North - - N/A   Clear
4:55 PM 82.4 °F - 51.4 °F 34% 30.10 in 10.0 mi North - - N/A   Clear
5:15 PM 82.4 °F - 50.5 °F 33% 30.10 in 7.0 mi North - - N/A   Clear
5:35 PM 81.5 °F - 49.8 °F 33% 30.10 in 7.0 mi North - - N/A   Clear
5:55 PM 81.3 °F - 48.9 °F 32% 30.10 in 7.0 mi North - - N/A   Clear
6:15 PM 81.7 °F - 48.0 °F 31% 30.09 in 7.0 mi North - - N/A   Clear
6:35 PM 81.7 °F - 48.9 °F 32% 30.09 in 10.0 mi North - - N/A   Clear
6:55 PM 81.5 °F - 49.3 °F 32% 30.09 in 10.0 mi North - - N/A   Clear
7:15 PM 80.6 °F - 48.0 °F 32% 30.09 in 10.0 mi North - - N/A   Clear
7:35 PM 80.6 °F - 47.7 °F 31% 30.09 in 10.0 mi North - - N/A   Clear
7:55 PM 79.7 °F - 48.2 °F 33% 30.10 in 10.0 mi North - - N/A   Clear
8:15 PM 77.9 °F - 47.8 °F 35% 30.10 in 10.0 mi North - - N/A   Clear
8:35 PM 75.4 °F - 48.2 °F 38% 30.10 in 10.0 mi North - - N/A   Clear
8:55 PM 72.5 °F - 48.0 °F 42% 30.11 in 10.0 mi North - - N/A   Clear
9:15 PM 70.2 °F - 47.8 °F 45% 30.11 in 10.0 mi North - - N/A   Clear
9:35 PM 68.0 °F - 49.1 °F 51% 30.11 in 10.0 mi North - - N/A   Clear
9:55 PM 67.3 °F - 48.7 °F 51% 30.12 in 10.0 mi North - - N/A   Clear
10:15 PM 66.2 °F - 49.8 °F 55% 30.12 in 10.0 mi North - - N/A   Clear
10:35 PM 67.1 °F - 49.5 °F 53% 30.13 in 10.0 mi North - - N/A   Scattered Clouds
10:55 PM 64.8 °F - 50.7 °F 60% 30.14 in 10.0 mi North - - N/A   Scattered Clouds
11:15 PM 64.4 °F - 51.4 °F 63% 30.14 in 10.0 mi North - - N/A   Scattered Clouds
11:35 PM 66.0 °F - 51.6 °F 60% - 10.0 mi North - - N/A   Scattered Clouds
11:55 PM 64.9 °F - 52.5 °F 64% 30.14 in 10.0 mi North - - N/A   Scattered Clouds